Alamosa, CO

9:23 AM MDT on June 28, 2017 (GMT -0600)
San Luis Valley Regional / Bergman Field

Weather History for KALS - September, 2012

Change the Weather History Date:

Friday, September 14, 2012

  Actual Average Record
Temperature  
Mean Temperature 50 °F 56 °F  
Max Temperature 69 °F 74 °F 85 °F (1956)
Min Temperature 31 °F 38 °F 24 °F (1945)
Degree Days  
Heating Degree Days 15 9  
Month to date heating degree days 89 100  
Since 1 July heating degree days 157 229  
Cooling Degree Days 0 0  
Month to date cooling degree days 2 0  
Year to date cooling degree days 115 51  
Moisture  
Dew Point 32 °F    
Average Humidity 61    
Maximum Humidity 100    
Minimum Humidity 22    
Precipitation  
Precipitation 0.00 in 0.03 in 0.68 in (2013)
Month to date precipitation 1.05 0.49  
Year to date precipitation 4.27 5.44  
Snow  
Snow 0.00 in 0.00 in 0.00 in (2002)
Month to date snowfall 0.0 0.0  
Since 1 July snowfall 0.0 0.0  
Since 1 September snowfall 0.0 0.0  
Snow Depth 0.00 in    
Sea Level Pressure  
Sea Level Pressure 30.37 in    
Wind  
Wind Speed 5 mph (WSW)    
Max Wind Speed 15 mph    
Max Gust Speed 18 mph    
Visibility 10 miles    
Events      
T = Trace of Precipitation, MM = Missing Value Source: NWS Daily Summary

Daily Weather History Graph

Daily Weather History Graph

Search for Another Location

Airport or City:

Trip Planner

Search our weather history database for the weather conditions in past years. The results will help you decide how hot, cold, wet, or windy it might be!

Date:

Astronomy

Sep. 14, 2012 Rise Set
Actual Time 6:45 AM MDT 7:11 PM MDT
Civil Twilight 6:18 AM MDT 7:38 PM MDT
Nautical Twilight 5:48 AM MDT 8:08 PM MDT
Astronomical Twilight 5:16 AM MDT 8:40 PM MDT
Moon 5:13 AM MDT (9/14) 6:09 PM MDT (9/14)
Length of Visible Light 13h 19m
Length of Day
12h 26m
Waning Crescent, 2% of the Moon is Illuminated
Sep 14
Waning Crescent
Sep 15
New
Sep 22
First Quarter
Sep 29
Full
Oct 8
Last Quarter

Hourly Weather History & Observations

Time (MDT) Temp. Windchill Dew Point Humidity Pressure Visibility Wind Dir Wind Speed Gust Speed Precip Events Conditions
12:52 AM 41.0 °F 36.4 °F 37.0 °F 86% 30.40 in 10.0 mi West 6.9 mph - N/A   Clear
1:52 AM 39.0 °F 36.8 °F 36.0 °F 89% 30.40 in 10.0 mi WNW 3.5 mph - N/A   Clear
2:52 AM 37.9 °F 35.5 °F 36.0 °F 93% 30.41 in 10.0 mi WNW 3.5 mph - N/A   Clear
3:52 AM 36.0 °F 33.3 °F 34.0 °F 93% 30.40 in 10.0 mi West 3.5 mph - N/A   Clear
4:52 AM 36.0 °F 32.1 °F 33.1 °F 89% 30.41 in 10.0 mi West 4.6 mph - N/A   Clear
5:52 AM 36.0 °F 33.3 °F 34.0 °F 93% 30.42 in 10.0 mi NW 3.5 mph - N/A   Clear
6:52 AM 30.9 °F 27.5 °F 30.0 °F 96% 30.47 in 8.0 mi SSE 3.5 mph - N/A   Clear
7:52 AM 36.0 °F - 35.1 °F 97% 30.49 in 9.0 mi Calm Calm - N/A   Clear
8:52 AM 44.1 °F - 37.9 °F 79% 30.47 in 10.0 mi Calm Calm - N/A   Clear
9:52 AM 54.0 °F - 34.0 °F 47% 30.43 in 10.0 mi Calm Calm - N/A   Clear
10:52 AM 60.1 °F - 34.0 °F 38% 30.40 in 10.0 mi North 6.9 mph - N/A   Clear
11:52 AM 63.0 °F - 28.9 °F 28% 30.38 in 10.0 mi Variable 6.9 mph - N/A   Clear
12:52 PM 64.4 °F - 30.2 °F 28% 30.52 in 10.0 mi Variable 5.8 mph - N/A   Clear
1:52 PM 66.0 °F - 30.0 °F 26% 30.32 in 10.0 mi West 5.8 mph - N/A   Clear
2:52 PM 66.0 °F - 30.9 °F 27% 30.31 in 10.0 mi Variable 3.5 mph - N/A   Partly Cloudy
3:52 PM 69.1 °F - 30.0 °F 23% 30.28 in 10.0 mi NE 5.8 mph - N/A   Clear
4:52 PM 69.1 °F - 28.0 °F 22% 30.26 in 10.0 mi NW 4.6 mph - N/A   Clear
5:52 PM 66.0 °F - 28.0 °F 24% 30.28 in 10.0 mi Variable 3.5 mph - N/A   Clear
6:52 PM 60.1 °F - 30.9 °F 33% 30.33 in 10.0 mi SE 10.4 mph - N/A   Clear
7:52 PM 51.1 °F - 33.1 °F 50% 30.35 in 10.0 mi SSE 6.9 mph - N/A   Clear
8:52 PM 50.0 °F - 30.9 °F 48% 30.33 in 10.0 mi SE 10.4 mph - N/A   Clear
9:52 PM 51.1 °F - 28.9 °F 43% 30.28 in 10.0 mi SE 12.7 mph - N/A   Clear
10:52 PM 46.9 °F - 30.9 °F 54% 30.29 in 10.0 mi West 8.1 mph - N/A   Clear
11:52 PM 41.0 °F 37.1 °F 30.9 °F 67% 30.30 in 10.0 mi SE 5.8 mph - N/A   Clear